STRATOSAT-TK 1 (RS52S)

Last updated on Wed Jul 02 2025 00:03:06 GMT+0000 (Coordinated Universal Time)

1 57167U 23091B 25182.59311862 .00030537 00000+0 72621-3 0 9992 2 57167 97.5511 246.8205 0007974 217.7259 142.3429 15.41566311111408
UTC large
Height (km)
Speed (km/s)
/
Latitude / Longitude
Inclination (degrees)
Orbital Period (minutes)
Azimuth
Elevation
Range (km)
Doppler Factor

Next 0 passes for location: London (51.5072 / 0.1276)

Sorry there are no passes over London.